FW0014 Weather Reports


time (UTC)temp
C
wind
direction
speed
KPH
gust
KPH
rain 1hr
cm
rain 24hr
cm
rain mn
cm
humidity
%
barometer
mb
20260906231029 33 122 0.0 0.0 0.00 0.00 0.00 48 1010.6
20260906230818 33 147 0.0 0.0 0.00 0.00 0.00 47 1013.5
20260906230522 33 132 0.0 0.0 0.00 0.00 0.00 47 1010.5
20260906230318 33 161 0.0 0.0 0.00 0.00 0.00 48 1013.5
20260906230016 33 113 0.0 0.0 0.00 0.00 0.00 48 1010.5
20260906225836 33 156 0.0 0.0 0.00 0.00 0.00 47 1013.4
20260906225544 33 168 0.0 0.0 0.00 0.00 0.00 48 1010.5
20260906225328 33 73 0.0 0.0 0.00 0.00 0.00 48 1013.4
20260906225039 33 183 0.0 0.0 0.00 0.00 0.00 48 1010.6
20260906224828 33 160 0.0 0.0 0.00 0.00 0.00 48 1013.6
20260906224530 33 152 0.0 0.0 0.00 0.00 0.00 48 1010.6
20260906224325 33 143 0.0 0.0 0.00 0.00 0.00 48 1013.4
20260906224011 33 142 0.0 0.0 0.00 0.00 0.00 49 1010.6
20260906223842 33 131 0.0 0.0 0.00 0.00 0.00 48 1013.5
20260906223544 33 175 0.0 0.0 0.00 0.00 0.00 49 1010.7
20260906223320 33 117 0.0 0.0 0.00 0.00 0.00 48 1013.6
20260906223044 33 172 0.0 0.0 0.00 0.00 0.00 47 1010.7
20260906222839 33 195 0.0 0.0 0.00 0.00 0.00 47 1013.7
20260906222526 33 143 0.0 0.0 0.00 0.00 0.00 46 1010.7
20260906222330 33 177 0.0 0.0 0.00 0.00 0.00 47 1013.6
20260906222008 33 157 0.0 0.0 0.00 0.00 0.00 47 1010.8
20260906221826 33 241 0.0 0.0 0.00 0.00 0.00 48 1013.7
20260906221602 33 240 0.0 0.0 0.00 0.00 0.00 47 1010.8
20260906221325 33 179 0.0 0.0 0.00 0.00 0.00 47 1013.8
20260906221056 33 226 0.0 0.0 0.00 0.00 0.00 48 1010.8
20260906220822 33 213 0.0 0.0 0.00 0.00 0.00 48 1013.9
20260906220544 33 246 0.0 0.0 0.00 0.00 0.00 48 1010.9
20260906220320 33 221 0.0 0.0 0.00 0.00 0.00 49 1013.9
20260906220041 33 233 0.0 0.0 0.00 0.00 0.00 49 1010.8
20260906215818 33 244 0.0 0.0 0.00 0.00 0.00 49 1013.9
20260906215533 32 235 0.0 0.0 0.00 0.00 0.00 49 1010.9
20260906215316 33 144 0.0 0.0 0.00 0.00 0.00 49 1013.9
20260906215027 32 144 0.0 0.0 0.00 0.00 0.00 49 1011.0
20260906214833 32 143 0.0 0.0 0.00 0.00 0.00 49 1014.0
20260906214513 32 144 0.0 0.0 0.00 0.00 0.00 49 1010.9
20260906214351 33 126 0.0 0.0 0.00 0.00 0.00 49 1014.0
20260906214045 32 122 0.0 0.0 0.00 0.00 0.00 49 1011.0
20260906213829 33 118 0.0 0.0 0.00 0.00 0.00 50 1014.0
20260906213537 33 112 0.0 0.0 0.00 0.00 0.00 49 1011.2
20260906213327 33 153 0.0 0.0 0.00 0.00 0.00 49 1014.1
20260906213030 33 155 0.0 0.0 0.00 0.00 0.00 49 1011.2
20260906212825 33 161 0.0 0.0 0.00 0.00 0.00 49 1014.2
20260906212513 33 160 0.0 0.0 0.00 0.00 0.00 49 1011.2
20260906212323 33 91 0.0 0.0 0.00 0.00 0.00 49 1014.4
20260906212005 33 181 0.0 0.0 0.00 0.00 0.00 50 1011.3
20260906211841 33 173 0.0 0.0 0.00 0.00 0.00 50 1014.2
20260906211537 33 150 0.0 0.0 0.00 0.00 0.00 50 1011.3
20260906211338 33 343 0.0 0.0 0.00 0.00 0.00 51 1014.4
20260906211102 32 135 0.0 0.0 0.00 0.00 0.00 51 1011.4
20260906210835 32 272 0.0 0.0 0.00 0.00 0.00 51 1014.5
20260906210532 32 292 0.0 0.0 0.00 0.00 0.00 51 1011.4
20260906210332 32 308 0.0 0.0 0.00 0.00 0.00 51 1014.5
20260906210013 32 308 0.0 0.0 0.00 0.00 0.00 51 1011.4
20260906205829 33 308 0.0 0.0 0.00 0.00 0.00 51 1014.6
20260906205545 32 212 0.0 0.0 0.00 0.00 0.00 51 1011.7
20260906205327 33 204 0.0 0.0 0.00 0.00 0.00 51 1014.8
20260906205037 32 217 0.0 0.0 0.00 0.00 0.00 51 1011.8
20260906204825 33 211 0.0 0.0 0.00 0.00 0.00 52 1014.8
20260906204550 32 243 0.0 0.0 0.00 0.00 0.00 52 1011.8
20260906204343 33 114 0.0 0.0 0.00 0.00 0.00 52 1014.7
20260906204055 32 196 0.0 0.0 0.00 0.00 0.00 53 1011.8
20260906203820 32 164 0.0 0.0 0.00 0.00 0.00 52 1014.8
20260906203546 32 157 0.0 0.0 0.00 0.00 0.00 52 1011.8
20260906203338 33 141 0.0 0.0 0.00 0.00 0.00 52 1014.8
20260906203013 32 155 0.0 0.0 0.00 0.00 0.00 52 1011.8
20260906202815 33 165 0.0 0.0 0.00 0.00 0.00 53 1014.8
20260906202602 32 116 0.0 0.0 0.00 0.00 0.00 53 1011.9
20260906202333 32 110 0.0 0.0 0.00 0.00 0.00 53 1014.9
20260906202053 32 98 0.0 0.0 0.00 0.00 0.00 54 1012.0
20260906201831 32 97 0.0 0.0 0.00 0.00 0.00 55 1015.0
20260906201543 32 222 0.0 0.0 0.00 0.00 0.00 54 1012.1
20260906201329 32 170 0.0 0.0 0.00 0.00 0.00 54 1015.1
20260906201036 32 168 0.0 0.0 0.00 0.00 0.00 54 1012.2
20260906200826 32 183 0.0 0.0 0.00 0.00 0.00 54 1015.1
20260906200523 32 147 0.0 0.0 0.00 0.00 0.00 55 1012.3
20260906200324 32 229 0.0 0.0 0.00 0.00 0.00 54 1015.1
20260906200005 32 172 0.0 0.0 0.00 0.00 0.00 55 1012.3
20260906195822 32 165 0.0 0.0 0.00 0.00 0.00 55 1015.3
20260906195558 32 171 0.0 0.0 0.00 0.00 0.00 55 1012.3
20260906195320 32 142 0.0 0.0 0.00 0.00 0.00 55 1015.3
20260906195047 32 144 0.0 0.0 0.00 0.00 0.00 54 1012.4
20260906194818 32 188 0.0 0.0 0.00 0.00 0.00 55 1015.5
20260906194537 32 227 0.0 0.0 0.00 0.00 0.00 55 1012.5
20260906194316 32 206 0.0 0.0 0.00 0.00 0.00 55 1015.5
20260906194027 32 145 0.0 0.0 0.00 0.00 0.00 55 1012.5
20260906193814 32 177 0.0 0.0 0.00 0.00 0.00 55 1015.4
20260906193511 31 131 0.0 0.0 0.00 0.00 0.00 55 1012.5
20260906193328 32 136 0.0 0.0 0.00 0.00 0.00 57 1015.6
20260906193104 31 154 0.0 0.0 0.00 0.00 0.00 57 1012.5
20260906192826 31 121 0.0 0.0 0.00 0.00 0.00 56 1015.7
20260906192551 31 251 0.0 0.0 0.00 0.00 0.00 56 1012.7
20260906192324 31 217 0.0 0.0 0.00 0.00 0.00 56 1015.7
20260906192041 31 252 0.0 0.0 0.00 0.00 0.00 58 1012.7
20260906191822 31 170 0.0 0.0 0.00 0.00 0.00 57 1015.8
20260906191532 31 127 0.0 0.0 0.00 0.00 0.00 57 1012.9
20260906191320 31 181 0.0 0.0 0.00 0.00 0.00 58 1016.0
20260906191021 30 207 0.0 0.0 0.00 0.00 0.00 58 1012.9
20260906190837 31 168 0.0 0.0 0.00 0.00 0.00 58 1015.9
20260906190545 30 163 0.0 0.0 0.00 0.00 0.00 58 1012.9
20260906190314 30 196 0.0 0.0 0.00 0.00 0.00 61 1016.0
20260906190036 30 168 0.0 0.0 0.00 0.00 0.00 62 1013.1
20260906185832 30 248 0.0 0.0 0.00 0.00 0.00 62 1016.2
20260906185533 30 88 0.0 0.0 0.00 0.00 0.00 60 1013.2
20260906185350 30 166 0.0 0.0 0.00 0.00 0.00 62 1016.2
20260906185057 30 122 0.0 0.0 0.00 0.00 0.00 63 1013.2
20260906184825 30 87 0.0 0.0 0.00 0.00 0.00 64 1016.3
20260906184549 30 120 0.0 0.0 0.00 0.00 0.00 65 1013.3
20260906184321 30 179 0.0 0.0 0.00 0.00 0.00 66 1016.4
20260906184040 29 195 0.0 0.0 0.00 0.00 0.00 67 1013.4
20260906183819 29 187 0.0 0.0 0.00 0.00 0.00 67 1016.4
20260906183535 29 215 0.0 0.0 0.00 0.00 0.00 68 1013.4
20260906183317 29 145 0.0 0.0 0.00 0.00 0.00 68 1016.4
20260906183020 28 140 0.0 0.0 0.00 0.00 0.00 68 1013.4
20260906182854 29 198 0.0 0.0 0.00 0.00 0.00 68 1016.6
20260906182553 28 147 0.0 0.0 0.00 0.00 0.00 71 1013.5
20260906182329 28 138 0.0 0.0 0.00 0.00 0.00 72 1016.6
20260906182045 28 226 0.0 0.0 0.00 0.00 0.00 72 1013.6
20260906181824 28 182 0.0 0.0 0.00 0.00 0.00 72 1016.7
20260906181547 27 197 0.0 0.0 0.00 0.00 0.00 73 1013.6
20260906181322 27 264 0.0 4.8 0.00 0.00 0.00 73 1016.7
20260906181034 27 220 0.0 8.0 0.00 0.00 0.00 75 1013.7
20260906180821 27 220 0.0 8.0 0.00 0.00 0.00 76 1016.9
20260906180524 27 220 4.8 8.0 0.00 0.00 0.00 76 1014.0
20260906180340 27 203 3.2 8.0 0.00 0.00 0.00 77 1017.0
20260906180013 26 189 4.8 8.0 0.00 0.00 0.00 77 1014.1
20260906175831 26 228 4.8 8.0 0.00 0.00 0.00 77 1017.1
20260906175559 26 229 4.8 8.0 0.00 0.00 0.00 78 1014.0
20260906175350 26 237 4.8 8.0 0.00 0.00 0.00 78 1017.0
20260906175030 26 220 4.8 8.0 0.00 0.00 0.00 78 1014.1
20260906174826 26 230 6.4 6.4 0.00 0.00 0.00 78 1017.1
20260906174555 26 230 1.6 6.4 0.00 0.00 0.00 79 1014.3
20260906174325 26 230 3.2 6.4 0.00 0.00 0.00 78 1017.3
20260906174047 25 231 3.2 6.4 0.00 0.00 0.00 79 1014.4
20260906173824 26 230 4.8 6.4 0.00 0.00 0.00 79 1017.5
20260906173538 25 226 3.2 6.4 0.00 0.00 0.00 79 1014.4
20260906173323 26 229 1.6 8.0 0.00 0.00 0.00 79 1017.6
20260906173033 25 229 3.2 8.0 0.00 0.00 0.00 78 1014.6
20260906172842 26 230 4.8 8.0 0.00 0.00 0.00 80 1017.7
20260906172559 25 230 4.8 8.0 0.00 0.00 0.00 81 1014.7
20260906172320 26 233 6.4 8.0 0.00 0.00 0.00 81 1017.7
20260906172049 25 229 4.8 8.0 0.00 0.00 0.00 82 1014.8
20260906171819 26 193 4.8 8.0 0.00 0.00 0.00 81 1017.8
20260906171549 25 193 4.8 8.0 0.00 0.00 0.00 81 1014.9
20260906171318 26 192 4.8 8.0 0.00 0.00 0.00 81 1018.0
20260906171033 25 193 4.8 12.9 0.00 0.00 0.00 81 1015.0
20260906170817 26 167 4.8 12.9 0.00 0.00 0.00 81 1018.1
20260906170527 26 154 4.8 12.9 0.00 0.00 0.00 81 1015.1
20260906170421 26 154 6.4 12.9 0.00 0.00 0.00 81 1018.1
20260906170029 26 137 6.4 12.9 0.00 0.00 0.00 80 1015.2
20260906165830 26 147 8.0 12.9 0.00 0.00 0.00 79 1018.1
20260906165515 26 150 6.4 11.3 0.00 0.00 0.00 79 1015.2
20260906165345 26 162 8.0 11.3 0.00 0.00 0.00 79 1018.2
20260906165048 26 145 3.2 6.4 0.00 0.00 0.00 80 1015.2
20260906164844 26 145 3.2 8.0 0.00 0.00 0.00 80 1018.1
20260906164511 26 156 3.2 9.7 0.00 0.00 0.00 81 1015.1
20260906164322 26 176 1.6 9.7 0.00 0.00 0.00 82 1018.1
20260906164003 26 95 4.8 9.7 0.00 0.00 0.00 82 1015.1
20260906163820 26 99 4.8 9.7 0.00 0.00 0.00 82 1018.2
20260906163557 26 85 1.6 8.0 0.00 0.00 0.00 83 1015.1
20260906163319 26 64 3.2 8.0 0.00 0.00 0.00 83 1018.1
20260906163101 26 104 1.6 9.7 0.00 0.00 0.00 83 1015.2
20260906162837 26 104 4.8 9.7 0.00 0.00 0.00 83 1018.2
20260906162517 26 120 0.0 6.4 0.00 0.00 0.00 84 1015.2
20260906162353 26 120 4.8 6.4 0.00 0.00 0.00 83 1018.2
20260906162052 26 120 1.6 4.8 0.00 0.00 0.00 84 1015.1
20260906161851 26 120 3.2 4.8 0.00 0.00 0.00 84 1018.1
20260906161518 26 120 1.6 4.8 0.00 0.00 0.00 84 1015.1
20260906161327 26 120 1.6 4.8 0.00 0.00 0.00 84 1018.1
20260906161003 25 120 0.0 4.8 0.00 0.00 0.00 84 1015.1
20260906160826 26 120 3.2 4.8 0.00 0.00 0.00 84 1018.1
20260906160557 25 68 1.6 4.8 0.00 0.00 0.00 83 1015.1
20260906160324 26 68 3.2 4.8 0.00 0.00 0.00 83 1018.1
20260906160054 25 68 0.0 4.8 0.00 0.00 0.00 83 1015.1
20260906155823 26 68 3.2 6.4 0.00 0.00 0.00 83 1018.1
20260906155543 25 68 1.6 6.4 0.00 0.00 0.00 82 1014.9
20260906155321 26 68 3.2 6.4 0.00 0.00 0.00 82 1018.0
20260906155033 25 75 3.2 6.4 0.00 0.00 0.00 82 1014.8
20260906154839 26 75 3.2 6.4 0.00 0.00 0.00 82 1017.9
20260906154522 25 75 1.6 6.4 0.00 0.00 0.00 82 1014.9
20260906154330 26 75 3.2 6.4 0.00 0.00 0.00 81 1017.8
20260906154011 25 105 1.6 6.4 0.00 0.00 0.00 82 1014.8
20260906153829 26 105 3.2 6.4 0.00 0.00 0.00 82 1017.7
20260906153506 25 95 1.6 6.4 0.00 0.00 0.00 84 1014.7
20260906153346 26 91 3.2 6.4 0.00 0.00 0.00 84 1017.6
20260906153043 25 99 1.6 6.4 0.00 0.00 0.00 84 1014.6
20260906152823 26 110 4.8 6.4 0.00 0.00 0.00 84 1017.6
20260906152532 25 83 1.6 6.4 0.00 0.00 0.00 84 1014.5
20260906152341 25 166 3.2 8.0 0.00 0.00 0.00 83 1017.6
20260906152052 25 166 1.6 8.0 0.00 0.00 0.00 83 1014.5
20260906151818 25 166 6.4 8.0 0.00 0.00 0.00 82 1017.5
20260906151546 25 166 4.8 8.0 0.00 0.00 0.00 82 1014.4
20260906151335 25 166 6.4 8.0 0.00 0.00 0.00 82 1017.4
20260906151009 25 166 4.8 8.0 0.00 0.00 0.00 82 1014.2
20260906150832 25 166 4.8 6.4 0.00 0.00 0.00 82 1017.2
20260906150503 25 166 3.2 4.8 0.00 0.00 0.00 82 1014.3
20260906150329 25 166 3.2 6.4 0.00 0.00 0.00 82 1017.2
20260906150034 25 166 3.2 6.4 0.00 0.00 0.00 83 1014.2
20260906145828 25 166 1.6 4.8 0.00 0.00 0.00 83 1017.1
20260906145524 25 166 1.6 4.8 0.00 0.00 0.00 83 1014.1
20260906145325 25 166 3.2 4.8 0.00 0.00 0.00 83 1017.1
20260906145007 25 166 3.2 8.0 0.00 0.00 0.00 83 1014.2
20260906144823 25 165 3.2 8.0 0.00 0.00 0.00 83 1017.2
20260906144601 25 166 3.2 9.7 0.00 0.00 0.00 83 1014.2
20260906144321 25 166 6.4 9.7 0.00 0.00 0.00 83 1017.3
20260906144048 24 165 6.4 9.7 0.00 0.00 0.00 83 1014.4
20260906143819 25 160 6.4 11.3 0.00 0.00 0.00 83 1017.3
20260906143539 24 158 4.8 11.3 0.00 0.00 0.00 83 1014.3
20260906143337 25 147 8.0 11.3 0.00 0.00 0.00 83 1017.3
20260906143003 24 154 4.8 9.7 0.00 0.00 0.00 84 1014.2
20260906142814 25 154 6.4 9.7 0.00 0.00 0.00 84 1017.1
20260906142554 24 154 3.2 8.0 0.00 0.00 0.00 84 1014.1
20260906142348 25 154 3.2 4.8 0.00 0.00 0.00 84 1016.9
20260906142028 24 154 1.6 8.0 0.00 0.00 0.00 84 1014.0
20260906141826 24 154 1.6 9.7 0.00 0.00 0.00 84 1016.9
20260906141512 24 154 3.2 9.7 0.00 0.00 0.00 84 1013.9
20260906141323 24 154 4.8 9.7 0.00 0.00 0.00 84 1016.8
20260906141100 24 154 4.8 8.0 0.00 0.00 0.00 85 1013.9
20260906140821 24 131 4.8 4.8 0.00 0.00 0.00 85 1016.8
20260906140553 23 131 0.0 0.0 0.00 0.00 0.00 85 1013.8
20260906140319 24 130 0.0 0.0 0.00 0.00 0.00 85 1016.7
20260906140041 23 131 0.0 0.0 0.00 0.00 0.00 85 1013.6
20260906135817 24 131 0.0 0.0 0.00 0.00 0.00 85 1016.6
20260906135529 23 130 0.0 0.0 0.00 0.00 0.00 84 1013.5
20260906135315 23 130 0.0 0.0 0.00 0.00 0.00 84 1016.5
20260906135018 23 131 0.0 0.0 0.00 0.00 0.00 85 1013.4
20260906134833 23 130 0.0 0.0 0.00 0.00 0.00 84 1016.4
20260906134604 23 130 0.0 0.0 0.00 0.00 0.00 84 1013.4
20260906134351 23 130 0.0 0.0 0.00 0.00 0.00 84 1016.4
20260906134035 23 131 0.0 0.0 0.00 0.00 0.00 84 1013.3
20260906133828 23 130 0.0 0.0 0.00 0.00 0.00 85 1016.3
20260906133519 23 130 0.0 0.0 0.00 0.00 0.00 85 1013.3
20260906133325 23 131 0.0 0.0 0.00 0.00 0.00 85 1016.3
20260906133005 23 131 0.0 4.8 0.00 0.00 0.00 85 1013.4
20260906132823 23 131 0.0 4.8 0.00 0.00 0.00 85 1016.4
20260906132556 23 130 0.0 4.8 0.00 0.00 0.00 85 1013.4
20260906132321 23 130 1.6 4.8 0.00 0.00 0.00 85 1016.4
20260906132047 23 130 0.0 0.0 0.00 0.00 0.00 85 1013.4
20260906131839 23 131 0.0 0.0 0.00 0.00 0.00 85 1016.5
20260906131533 23 131 0.0 0.0 0.00 0.00 0.00 85 1013.3
20260906131330 23 130 0.0 0.0 0.00 0.00 0.00 84 1016.3
20260906131016 22 130 0.0 0.0 0.00 0.00 0.00 84 1013.2
20260906130829 23 131 0.0 0.0 0.00 0.00 0.00 84 1016.1
20260906130509 22 130 0.0 0.0 0.00 0.00 0.00 84 1013.2
20260906130325 23 130 0.0 0.0 0.00 0.00 0.00 84 1016.1
20260906130114 22 131 0.0 0.0 0.00 0.00 0.00 84 1013.1
20260906125823 23 130 0.0 0.0 0.00 0.00 0.00 83 1016.2
20260906125551 22 131 0.0 0.0 0.00 0.00 0.00 83 1013.1
20260906125321 23 131 0.0 0.0 0.00 0.00 0.00 83 1016.1
20260906125041 22 131 0.0 0.0 0.00 0.00 0.00 83 1013.2
20260906124819 23 130 0.0 0.0 0.00 0.00 0.00 83 1016.1
20260906124538 22 130 0.0 0.0 0.00 0.00 0.00 83 1013.1
20260906124336 23 130 0.0 0.0 0.00 0.00 0.00 83 1016.0
20260906124018 22 131 0.0 0.0 0.00 0.00 0.00 83 1012.9
20260906123832 23 130 0.0 0.0 0.00 0.00 0.00 83 1015.9
20260906123601 22 131 0.0 0.0 0.00 0.00 0.00 83 1012.8
20260906123330 23 131 0.0 0.0 0.00 0.00 0.00 83 1015.9
20260906123055 22 130 0.0 0.0 0.00 0.00 0.00 82 1012.7
20260906122829 23 130 0.0 0.0 0.00 0.00 0.00 82 1015.7
20260906122544 23 131 0.0 0.0 0.00 0.00 0.00 82 1012.7
20260906122325 23 130 0.0 0.0 0.00 0.00 0.00 82 1015.8
20260906122036 23 130 0.0 0.0 0.00 0.00 0.00 82 1012.7
20260906121822 23 130 0.0 0.0 0.00 0.00 0.00 82 1015.8
20260906121531 23 130 0.0 0.0 0.00 0.00 0.00 82 1012.7
20260906121340 23 131 0.0 0.0 0.00 0.00 0.00 82 1015.7
20260906121021 23 131 0.0 0.0 0.00 0.00 0.00 81 1012.7
20260906120830 23 131 0.0 0.0 0.00 0.00 0.00 81 1015.6
20260906120508 23 130 0.0 0.0 0.00 0.00 0.00 81 1012.6
20260906120325 23 131 0.0 0.0 0.00 0.00 0.00 81 1015.5
20260906120002 23 130 0.0 0.0 0.00 0.00 0.00 81 1012.3
20260906115822 23 130 0.0 0.0 0.00 0.00 0.00 81 1015.3
20260906115556 23 131 0.0 0.0 0.00 0.00 0.00 81 1012.2
20260906115318 23 130 0.0 0.0 0.00 0.00 0.00 81 1015.3
20260906115049 23 131 0.0 0.0 0.00 0.00 0.00 82 1012.2
20260906114815 23 130 0.0 0.0 0.00 0.00 0.00 81 1015.3
20260906114546 23 130 0.0 0.0 0.00 0.00 0.00 81 1012.3
20260906114331 23 130 0.0 0.0 0.00 0.00 0.00 81 1015.1
20260906114030 23 130 0.0 0.0 0.00 0.00 0.00 81 1012.0
20260906113829 23 130 0.0 0.0 0.00 0.00 0.00 81 1014.9
20260906113512 23 130 0.0 0.0 0.00 0.00 0.00 80 1012.0
20260906113346 23 131 0.0 0.0 0.00 0.00 0.00 80 1015.0
20260906113044 23 130 0.0 0.0 0.00 0.00 0.00 80 1012.0
20260906112820 23 130 0.0 0.0 0.00 0.00 0.00 80 1015.0
20260906112536 23 130 0.0 0.0 0.00 0.00 0.00 80 1012.1
20260906112317 23 130 0.0 0.0 0.00 0.00 0.00 80 1015.0
20260906112028 23 131 0.0 0.0 0.00 0.00 0.00 80 1012.2
20260906111816 24 130 0.0 0.0 0.00 0.00 0.00 80 1015.0
20260906111523 23 130 0.0 0.0 0.00 0.00 0.00 80 1012.0
20260906111334 24 131 0.0 0.0 0.00 0.00 0.00 80 1015.0
20260906111048 23 131 0.0 0.0 0.00 0.00 0.00 80 1012.0
20260906110832 24 130 0.0 0.0 0.00 0.00 0.00 80 1014.9
20260906110542 23 130 0.0 0.0 0.00 0.00 0.00 80 1011.9
20260906110330 24 131 0.0 0.0 0.00 0.00 0.00 79 1014.9
20260906110034 23 131 0.0 0.0 0.00 0.00 0.00 79 1011.9
20260906105847 24 130 0.0 3.2 0.00 0.00 0.00 79 1014.9
20260906105600 24 130 0.0 3.2 0.00 0.00 0.00 79 1011.9
20260906105323 24 131 0.0 3.2 0.00 0.00 0.00 79 1014.8
20260906105052 24 130 0.0 3.2 0.00 0.00 0.00 79 1011.8
20260906104821 25 131 0.0 1.6 0.00 0.00 0.00 79 1014.7
20260906104544 24 130 0.0 1.6 0.00 0.00 0.00 79 1011.7
20260906104336 25 131 0.0 1.6 0.00 0.00 0.00 79 1014.7
20260906104017 24 130 0.0 3.2 0.00 0.00 0.00 78 1011.7
20260906103815 25 130 0.0 3.2 0.00 0.00 0.00 78 1014.7
20260906103600 24 131 0.0 3.2 0.00 0.00 0.00 79 1011.8
20260906103313 25 130 1.6 3.2 0.00 0.00 0.00 79 1014.8
20260906103057 24 130 0.0 3.2 0.00 0.00 0.00 78 1011.9
20260906102851 25 130 1.6 3.2 0.00 0.00 0.00 78 1014.9
20260906102519 25 130 0.0 3.2 0.00 0.00 0.00 77 1011.9
20260906102326 25 130 0.0 0.0 0.00 0.00 0.00 77 1014.8
20260906102048 25 130 0.0 0.0 0.00 0.00 0.00 77 1011.9
20260906101823 25 130 0.0 0.0 0.00 0.00 0.00 77 1014.9
20260906101545 25 130 0.0 0.0 0.00 0.00 0.00 76 1011.8
20260906101321 25 130 0.0 0.0 0.00 0.00 0.00 76 1014.8
20260906101004 25 131 0.0 0.0 0.00 0.00 0.00 76 1011.8
20260906100819 25 130 0.0 1.6 0.00 0.00 0.00 76 1014.8
20260906100558 25 131 0.0 3.2 0.00 0.00 0.00 76 1011.8
20260906100318 25 130 0.0 4.8 0.00 0.00 0.00 76 1014.7
20260906100056 25 130 0.0 4.8 0.00 0.00 0.00 76 1011.8
20260906095836 25 130 1.6 4.8 0.00 0.00 0.00 77 1014.8
20260906095525 25 130 1.6 3.2 0.00 0.00 0.00 77 1011.8
20260906095353 25 131 1.6 3.2 0.00 0.00 0.00 77 1014.8
20260906095050 25 131 0.0 3.2 0.00 0.00 0.00 76 1011.8
20260906094851 25 130 0.0 3.2 0.00 0.00 0.00 76 1014.8
20260906094514 25 130 0.0 0.0 0.00 0.00 0.00 76 1011.8
20260906094329 25 131 0.0 0.0 0.00 0.00 0.00 76 1014.8
20260906094013 25 131 0.0 0.0 0.00 0.00 0.00 76 1011.8
20260906093846 25 131 0.0 0.0 0.00 0.00 0.00 76 1014.7
20260906093547 25 131 0.0 0.0 0.00 0.00 0.00 76 1011.7
20260906093343 25 131 0.0 1.6 0.00 0.00 0.00 76 1014.7
20260906093024 25 130 0.0 3.2 0.00 0.00 0.00 76 1011.7
20260906092820 25 131 0.0 3.2 0.00 0.00 0.00 77 1014.7
20260906092504 25 130 0.0 3.2 0.00 0.00 0.00 77 1011.7
20260906092318 25 131 1.6 3.2 0.00 0.00 0.00 77 1014.7
20260906092056 25 130 0.0 1.6 0.00 0.00 0.00 77 1011.7
20260906091816 25 131 0.0 1.6 0.00 0.00 0.00 76 1014.7
20260906091548 25 131 0.0 3.2 0.00 0.00 0.00 76 1011.7
20260906091314 25 130 0.0 3.2 0.00 0.00 0.00 76 1014.7
20260906091038 25 130 0.0 3.2 0.00 0.00 0.00 76 1011.7
20260906090852 26 130 1.6 3.2 0.00 0.00 0.00 76 1014.7
20260906090503 25 130 0.0 1.6 0.00 0.00 0.00 76 1011.7
20260906090331 26 131 0.0 1.6 0.00 0.00 0.00 76 1014.5
20260906090057 25 131 0.0 1.6 0.00 0.00 0.00 76 1011.5
20260906085828 26 130 0.0 1.6 0.00 0.00 0.00 76 1014.5
20260906085548 25 131 0.0 1.6 0.00 0.00 0.00 76 1011.5
20260906085325 26 131 0.0 0.0 0.00 0.00 0.00 76 1014.4
20260906085038 25 131 0.0 0.0 0.00 0.00 0.00 76 1011.4
20260906084823 26 130 0.0 0.0 0.00 0.00 0.00 76 1014.4
20260906084530 25 131 0.0 0.0 0.00 0.00 0.00 76 1011.4
20260906084321 25 130 0.0 0.0 0.00 0.00 0.00 76 1014.4
20260906084025 25 131 0.0 0.0 0.00 0.00 0.00 76 1011.5
20260906083819 25 131 0.0 0.0 0.00 0.00 0.00 76 1014.5
20260906083515 25 131 0.0 0.0 0.00 0.00 0.00 75 1011.5
20260906083317 25 130 0.0 0.0 0.00 0.00 0.00 75 1014.5
20260906083058 25 130 0.0 1.6 0.00 0.00 0.00 75 1011.5
20260906082814 26 131 0.0 3.2 0.00 0.00 0.00 75 1014.6
20260906082548 25 131 0.0 3.2 0.00 0.00 0.00 75 1011.7
20260906082329 26 131 0.0 3.2 0.00 0.00 0.00 75 1014.6
20260906082040 25 131 0.0 3.2 0.00 0.00 0.00 75 1011.6
20260906081847 26 131 0.0 0.0 0.00 0.00 0.00 75 1014.6
20260906081603 25 130 0.0 0.0 0.00 0.00 0.00 75 1011.7
20260906081323 26 130 0.0 0.0 0.00 0.00 0.00 75 1014.7
20260906081057 25 130 0.0 1.6 0.00 0.00 0.00 75 1011.6
20260906080821 26 131 0.0 1.6 0.00 0.00 0.00 75 1014.6
20260906080546 25 130 0.0 1.6 0.00 0.00 0.00 75 1011.7
20260906080340 26 131 0.0 3.2 0.00 0.00 0.00 75 1014.8
20260906080034 25 130 0.0 3.2 0.00 0.00 0.00 75 1011.8
20260906075830 26 131 0.0 3.2 0.00 0.00 0.00 75 1014.7
20260906075517 25 130 0.0 4.8 0.00 0.00 0.00 75 1011.8
20260906075350 26 131 0.0 4.8 0.00 0.00 0.00 75 1014.7
20260906075050 25 130 0.0 4.8 0.00 0.00 0.00 75 1011.7
20260906074826 26 130 0.0 4.8 0.00 0.00 0.00 75 1014.8
20260906074538 25 130 0.0 3.2 0.00 0.00 0.00 74 1011.9
20260906074345 26 130 0.0 3.2 0.00 0.00 0.00 74 1015.0
20260906074103 25 130 0.0 3.2 0.00 0.00 0.00 74 1012.0
20260906073822 26 131 0.0 3.2 0.00 0.00 0.00 74 1014.9
20260906073554 25 130 0.0 1.6 0.00 0.00 0.00 74 1011.9
20260906073340 26 131 0.0 1.6 0.00 0.00 0.00 74 1014.9
20260906073042 25 130 0.0 1.6 0.00 0.00 0.00 74 1012.1
20260906072831 26 130 0.0 1.6 0.00 0.00 0.00 74 1015.0
20260906072532 25 130 0.0 3.2 0.00 0.00 0.00 74 1012.1
20260906072350 26 130 0.0 3.2 0.00 0.00 0.00 74 1015.0
20260906072056 25 130 0.0 3.2 0.00 0.00 0.00 74 1012.1
20260906071827 26 130 1.6 3.2 0.00 0.00 0.00 74 1015.2
20260906071550 25 131 1.6 3.2 0.00 0.00 0.00 74 1012.3
20260906071325 26 130 1.6 3.2 0.00 0.00 0.00 74 1015.1
20260906071036 25 130 1.6 3.2 0.00 0.00 0.00 74 1012.2
20260906070823 26 130 1.6 1.6 0.00 0.00 0.00 73 1015.2
20260906070526 25 130 0.0 0.0 0.00 0.00 0.00 73 1012.1
20260906070320 26 130 0.0 0.0 0.00 0.00 0.00 73 1015.0
20260906070008 26 131 0.0 0.0 0.00 0.00 0.00 72 1012.3
20260906065818 26 131 0.0 0.0 0.00 0.00 0.00 72 1015.3
20260906065602 26 130 0.0 0.0 0.00 0.00 0.00 72 1012.3
20260906065317 26 130 0.0 0.0 0.00 0.00 0.00 72 1015.3
20260906065050 26 130 0.0 0.0 0.00 0.00 0.00 72 1012.3
20260906064815 26 130 0.0 0.0 0.00 0.00 0.00 72 1015.2
20260906064541 26 131 0.0 0.0 0.00 0.00 0.00 72 1012.3
20260906064353 26 130 0.0 0.0 0.00 0.00 0.00 71 1015.2
20260906064006 26 131 0.0 0.0 0.00 0.00 0.00 71 1012.3
20260906063850 26 130 0.0 0.0 0.00 0.00 0.00 71 1015.3
20260906063541 26 131 0.0 1.6 0.00 0.00 0.00 70 1012.2
20260906063325 26 130 0.0 1.6 0.00 0.00 0.00 70 1015.3
20260906063038 26 129 0.0 1.6 0.00 0.00 0.00 70 1012.2
20260906062821 26 130 1.6 1.6 0.00 0.00 0.00 70 1015.2
20260906062529 26 131 0.0 1.6 0.00 0.00 0.00 70 1012.3
20260906062319 26 131 0.0 0.0 0.00 0.00 0.00 70 1015.3
20260906062027 26 130 0.0 0.0 0.00 0.00 0.00 69 1012.4
20260906061819 26 131 0.0 0.0 0.00 0.00 0.00 69 1015.3
20260906061516 26 130 0.0 0.0 0.00 0.00 0.00 69 1012.5
20260906061316 26 131 0.0 0.0 0.00 0.00 0.00 69 1015.5
20260906061001 26 130 0.0 1.6 0.00 0.00 0.00 70 1012.5
20260906060815 26 131 0.0 3.2 0.00 0.00 0.00 70 1015.6
20260906060555 26 131 0.0 3.2 0.00 0.00 0.00 70 1012.6
20260906060314 26 131 0.0 3.2 0.00 0.00 0.00 70 1015.6
20260906060049 26 131 0.0 3.2 0.00 0.00 0.00 70 1012.5
20260906055848 27 131 1.6 3.2 0.00 0.00 0.00 70 1015.5
20260906055603 26 130 0.0 3.2 0.00 0.00 0.00 70 1012.6
20260906055325 27 130 1.6 3.2 0.00 0.00 0.00 69 1015.5
20260906055054 26 131 0.0 3.2 0.00 0.00 0.00 69 1012.5
20260906054823 27 131 0.0 3.2 0.00 0.00 0.00 69 1015.5
20260906054558 26 131 0.0 3.2 0.00 0.00 0.00 69 1012.5
20260906054320 27 130 0.0 3.2 0.00 0.00 0.00 69 1015.5
20260906054038 27 130 0.0 3.2 0.00 0.00 0.00 68 1012.6
20260906053839 27 130 0.0 4.8 0.00 0.00 0.00 68 1015.6
20260906053601 27 131 0.0 4.8 0.00 0.00 0.00 68 1012.5
20260906053315 27 131 1.6 4.8 0.00 0.00 0.00 68 1015.6
20260906053059 27 131 1.6 4.8 0.00 0.00 0.00 68 1012.7
20260906052826 27 130 1.6 4.8 0.00 0.00 0.00 68 1015.6
20260906052550 27 131 1.6 4.8 0.00 0.00 0.00 68 1012.7
20260906052345 27 131 1.6 4.8 0.00 0.00 0.00 68 1015.7
20260906052012 27 131 1.6 4.8 0.00 0.00 0.00 68 1012.7
20260906051823 27 130 3.2 4.8 0.00 0.00 0.00 68 1015.6
20260906051503 27 100 0.0 4.8 0.00 0.00 0.00 67 1012.8
20260906051319 27 101 3.2 4.8 0.00 0.00 0.00 67 1015.7
20260906051058 27 104 1.6 4.8 0.00 0.00 0.00 67 1012.7
20260906050815 27 111 1.6 8.0 0.00 0.00 0.00 67 1015.7
20260906050549 27 133 0.0 8.0 0.00 0.00 0.00 67 1012.9
20260906050332 27 133 1.6 8.0 0.00 0.00 0.00 67 1015.9
20260906050047 27 133 3.2 4.8 0.00 0.00 0.00 66 1013.0
20260906045840 27 133 3.2 9.7 0.00 0.00 0.00 66 1015.9
20260906045545 27 133 0.0 9.7 0.00 0.00 0.00 66 1012.8
20260906045337 28 133 1.6 12.9 0.00 0.00 0.00 66 1015.9
20260906045017 27 133 3.2 12.9 0.00 0.00 0.00 66 1012.9
20260906044814 28 100 3.2 12.9 0.00 0.00 0.00 65 1015.8
20260906044609 27 104 3.2 12.9 0.00 0.00 0.00 65 1012.8
20260906044352 28 80 3.2 11.3 0.00 0.00 0.00 65 1015.9
20260906044032 28 73 1.6 11.3 0.00 0.00 0.00 65 1012.9
20260906043829 28 137 3.2 14.5 0.00 0.00 0.00 65 1015.8
20260906043514 28 118 3.2 14.5 0.00 0.00 0.00 65 1012.8
20260906043347 28 113 6.4 14.5 0.00 0.00 0.00 64 1015.7
20260906043047 28 154 6.4 12.9 0.00 0.00 0.00 64 1012.8
20260906042823 28 162 6.4 12.9 0.00 0.00 0.00 64 1015.7
20260906042536 28 150 8.0 14.5 0.00 0.00 0.00 64 1012.7
20260906042341 28 142 8.0 14.5 0.00 0.00 0.00 64 1015.7
20260906042100 28 120 4.8 14.5 0.00 0.00 0.00 63 1012.7
20260906041838 28 119 9.7 14.5 0.00 0.00 0.00 63 1015.7
20260906041531 28 143 4.8 14.5 0.00 0.00 0.00 63 1012.8
20260906041315 28 87 4.8 14.5 0.00 0.00 0.00 63 1015.7
20260906041013 28 142 6.4 16.1 0.00 0.00 0.00 62 1012.8
20260906040833 28 133 8.0 16.1 0.00 0.00 0.00 62 1015.8
20260906040504 28 131 9.7 16.1 0.00 0.00 0.00 62 1012.9
20260906040330 28 118 8.0 16.1 0.00 0.00 0.00 62 1015.7
20260906040059 28 149 9.7 17.7 0.00 0.00 0.00 62 1012.7
20260906035828 29 165 9.7 20.9 0.00 0.00 0.00 62 1015.7
20260906035525 28 118 9.7 20.9 0.00 0.00 0.00 61 1012.7
20260906035326 29 148 9.7 20.9 0.00 0.00 0.00 61 1015.7
20260906035008 28 116 11.3 20.9 0.00 0.00 0.00 61 1012.8
20260906034824 29 122 12.9 20.9 0.00 0.00 0.00 61 1015.7
20260906034615 28 101 9.7 17.7 0.00 0.00 0.00 61 1012.8
20260906034322 29 149 6.4 16.1 0.00 0.00 0.00 61 1015.7
20260906034057 28 131 4.8 16.1 0.00 0.00 0.00 61 1012.7
20260906033820 29 143 4.8 16.1 0.00 0.00 0.00 61 1015.7
20260906033549 28 116 4.8 12.9 0.00 0.00 0.00 61 1012.7
20260906033319 29 127 4.8 16.1 0.00 0.00 0.00 61 1015.5
20260906033102 29 118 3.2 16.1 0.00 0.00 0.00 61 1012.5
20260906032838 29 146 4.8 16.1 0.00 0.00 0.00 61 1015.4
20260906032528 29 100 6.4 16.1 0.00 0.00 0.00 61 1012.5
20260906032315 29 114 3.2 9.7 0.00 0.00 0.00 60 1015.3
20260906032018 29 125 3.2 9.7 0.00 0.00 0.00 60 1012.4
20260906031829 29 129 4.8 9.7 0.00 0.00 0.00 60 1015.3
20260906031554 29 121 3.2 11.3 0.00 0.00 0.00 60 1012.3
20260906031348 29 133 3.2 11.3 0.00 0.00 0.00 60 1015.1
20260906031028 29 133 3.2 11.3 0.00 0.00 0.00 60 1012.2
20260906030825 29 115 6.4 11.3 0.00 0.00 0.00 60 1015.0
20260906030515 29 96 3.2 11.3 0.00 0.00 0.00 60 1012.2
20260906030324 29 88 4.8 11.3 0.00 0.00 0.00 59 1015.0
20260906030005 29 104 4.8 9.7 0.00 0.00 0.00 59 1012.2
20260906025822 29 124 3.2 9.7 0.00 0.00 0.00 59 1014.9
20260906025538 29 141 3.2 9.7 0.00 0.00 0.00 59 1012.1
20260906025322 30 116 3.2 9.7 0.00 0.00 0.00 58 1015.0
20260906025032 29 95 3.2 9.7 0.00 0.00 0.00 58 1012.1
20260906024821 30 115 3.2 9.7 0.00 0.00 0.00 58 1014.8
20260906024523 29 116 1.6 9.7 0.00 0.00 0.00 57 1012.0
20260906024320 30 117 3.2 9.7 0.00 0.00 0.00 57 1014.7
20260906024022 30 129 1.6 6.4 0.00 0.00 0.00 57 1011.9
20260906023817 30 138 3.2 6.4 0.00 0.00 0.00 57 1014.6
20260906023502 30 131 3.2 4.8 0.00 0.00 0.00 56 1011.7
20260906023336 30 123 3.2 4.8 0.00 0.00 0.00 56 1014.5
20260906023036 30 125 0.0 6.4 0.00 0.00 0.00 56 1011.4
20260906022814 30 126 3.2 9.7 0.00 0.00 0.00 56 1014.3
20260906022530 30 116 0.0 9.7 0.00 0.00 0.00 55 1011.4
20260906022338 30 117 3.2 9.7 0.00 0.00 0.00 55 1014.2
20260906022052 30 145 3.2 9.7 0.00 0.00 0.00 55 1011.2
20260906021831 30 116 4.8 11.3 0.00 0.00 0.00 55 1014.1
20260906021544 30 130 3.2 11.3 0.00 0.00 0.00 54 1011.0
20260906021330 30 138 3.2 11.3 0.00 0.00 0.00 54 1014.1
20260906021037 30 116 3.2 11.3 0.00 0.00 0.00 54 1011.2
20260906020829 30 135 4.8 9.7 0.00 0.00 0.00 53 1014.0
20260906020529 30 118 1.6 6.4 0.00 0.00 0.00 53 1011.0
20260906020326 30 127 0.0 0.0 0.00 0.00 0.00 52 1014.0
20260906020011 30 114 0.0 0.0 0.00 0.00 0.00 52 1011.1
20260906015826 30 133 0.0 0.0 0.00 0.00 0.00 51 1013.8
20260906015504 30 111 0.0 0.0 0.00 0.00 0.00 51 1010.9
20260906015325 31 112 0.0 0.0 0.00 0.00 0.00 51 1013.8
20260906015100 30 101 0.0 0.0 0.00 0.00 0.00 51 1010.9
20260906014844 31 100 0.0 0.0 0.00 0.00 0.00 50 1013.8
20260906014532 31 104 0.0 0.0 0.00 0.00 0.00 50 1010.9
20260906014323 31 129 0.0 0.0 0.00 0.00 0.00 50 1013.7
20260906014025 31 163 0.0 0.0 0.00 0.00 0.00 49 1010.7
20260906013820 31 163 0.0 0.0 0.00 0.00 0.00 48 1013.6
20260906013521 31 163 0.0 0.0 0.00 0.00 0.00 48 1010.6
20260906013339 31 163 0.0 0.0 0.00 0.00 0.00 48 1013.5
20260906013109 31 163 0.0 0.0 0.00 0.00 0.00 48 1010.6
20260906012832 31 163 0.0 0.0 0.00 0.00 0.00 47 1013.4
20260906012553 31 163 0.0 0.0 0.00 0.00 0.00 47 1010.6
20260906012351 31 164 0.0 0.0 0.00 0.00 0.00 47 1013.4
20260906012026 31 163 0.0 0.0 0.00 0.00 0.00 47 1010.5
20260906011829 32 164 0.0 0.0 0.00 0.00 0.00 47 1013.3
20260906011515 31 163 0.0 0.0 0.00 0.00 0.00 47 1010.4
20260906011327 32 164 0.0 0.0 0.00 0.00 0.00 46 1013.3
20260906011003 31 163 0.0 0.0 0.00 0.00 0.00 46 1010.5
20260906010825 32 163 0.0 0.0 0.00 0.00 0.00 46 1013.2
20260906010538 32 163 0.0 0.0 0.00 0.00 0.00 46 1010.4
20260906010344 32 163 0.0 0.0 0.00 0.00 0.00 46 1013.3
20260906010002 32 164 0.0 0.0 0.00 0.00 0.00 46 1010.4
20260906005822 32 164 0.0 0.0 0.00 0.00 0.00 45 1013.3
20260906005556 32 164 0.0 0.0 0.00 0.00 0.00 45 1010.4
20260906005321 32 163 0.0 0.0 0.00 0.00 0.00 45 1013.2
20260906005048 32 163 0.0 0.0 0.00 0.00 0.00 45 1010.3
20260906004820 32 133 0.0 0.0 0.00 0.00 0.00 45 1013.2
20260906004538 32 145 0.0 0.0 0.00 0.00 0.00 45 1010.4
20260906004319 33 135 0.0 0.0 0.00 0.00 0.00 45 1013.2
20260906004030 32 153 0.0 0.0 0.00 0.00 0.00 44 1010.4
20260906003818 33 152 0.0 0.0 0.00 0.00 0.00 44 1013.2
20260906003520 33 139 0.0 0.0 0.00 0.00 0.00 44 1010.4
20260906003317 33 147 0.0 0.0 0.00 0.00 0.00 44 1013.3
20260906003016 33 142 0.0 0.0 0.00 0.00 0.00 44 1010.4
20260906002815 33 126 0.0 0.0 0.00 0.00 0.00 44 1013.2
20260906002505 33 144 0.0 0.0 0.00 0.00 0.00 44 1010.5
20260906002350 33 116 0.0 0.0 0.00 0.00 0.00 44 1013.2
20260906002042 33 72 0.0 0.0 0.00 0.00 0.00 44 1010.4
20260906001826 33 120 0.0 0.0 0.00 0.00 0.00 44 1013.2
20260906001538 33 143 0.0 0.0 0.00 0.00 0.00 43 1010.3
20260906001324 33 117 0.0 0.0 0.00 0.00 0.00 43 1013.1
20260906001027 33 132 0.0 0.0 0.00 0.00 0.00 43 1010.3
20260906000842 33 161 0.0 0.0 0.00 0.00 0.00 43 1013.2
20260906000553 33 144 0.0 0.0 0.00 0.00 0.00 43 1010.3
20260906000340 34 152 0.0 0.0 0.00 0.00 0.00 43 1013.2
20260906000040 33 138 0.0 0.0 0.00 0.00 0.00 43 1010.3
20260905235830 34 152 0.0 0.0 0.00 0.00 0.00 43 1013.0
20260905235531 33 133 0.0 0.0 0.00 0.00 0.00 43 1010.3
20260905235329 34 139 0.0 0.0 0.00 0.00 0.00 43 1013.1
20260905235014 33 135 0.0 0.0 0.00 0.00 0.00 43 1010.3
20260905234828 34 110 0.0 0.0 0.00 0.00 0.00 43 1013.1
20260905234505 33 156 0.0 0.0 0.00 0.00 0.00 43 1010.2
20260905234326 34 142 0.0 0.0 0.00 0.00 0.00 43 1013.2
20260905234056 34 140 0.0 0.0 0.00 0.00 0.00 43 1010.4
20260905233844 34 137 0.0 0.0 0.00 0.00 0.00 42 1013.2
20260905233526 34 146 0.0 0.0 0.00 0.00 0.00 42 1010.4
20260905233321 34 147 0.0 0.0 0.00 0.00 0.00 42 1013.2
20260905233009 34 170 0.0 0.0 0.00 0.00 0.00 42 1010.3
20260905232819 34 145 0.0 0.0 0.00 0.00 0.00 42 1013.2
20260905232502 34 162 0.0 0.0 0.00 0.00 0.00 42 1010.2
20260905232317 35 79 0.0 0.0 0.00 0.00 0.00 42 1013.0
20260905232058 34 111 0.0 0.0 0.00 0.00 0.00 42 1010.2
20260905231815 35 116 0.0 0.0 0.00 0.00 0.00 42 1013.0
20260905231548 34 75 0.0 0.0 0.00 0.00 0.00 42 1010.2
20260905231333 35 130 0.0 0.0 0.00 0.00 0.00 41 1013.0